Temp
-15 -15 -15 -15 -14 -14 -14 -14 -13 -13 -13 -13 -12 -13 -13 -13 -13 -13 -13 -12 -12 -12 -12 -12 -12 -12 -12 -13 -13 -12 -12 -12 -12 -12 -12 -12 -12 -12
-16 -15 -15 -15 -15 -14 -14 -14 -14 -13 -13 -13 -13 -12 -12 -12 -13 -13 -13 -13 -12 -13 -12 -12 -12 -12 -12 -12 -12 -12 -13 -13 -13 -12 -12 -12 -13 -12
-16 -16 -15 -15 -15 -15 -15 -14 -14 -14 -13 -13 -13 -13 -13 -13 -13 -13 -13 -13 -13 -13 -13 -13 -13 -13 -13 -13 -12 -12 -13 -13 -13 -13 -13 -13 -13 -13
-16 -16 -16 -16 -16 -16 -15 -14 -14 -13 -13 -12 -12 -12 -12 -12 -12 -13 -13 -13 -13 -13 -13 -14 -13 -13 -13 -13 -13 -13 -13 -13 -13 -14 -13 -13 -13 -14
-16 -16 -16 -16 -16 -16 -15 -14 -14 -13 -13 -13 -13 -14 -13 -13 -14 -14 -15 -15 -15 -14 -14 -14 -14 -14 -14 -14 -14 -14 -14 -13 -13 -14 -13 -13 -13 -14
-15 -15 -15 -15 -14 -14 -14 -14 -14 -14 -14 -14 -13 -13 -13 -13 -13 -14 -16 -17 -18 -18 -17 -16 -16 -16 -16 -16 -15 -15 -15 -14 -14 -14 -14 -13 -14 -14
-15 -15 -14 -14 -14 -14 -14 -14 -14 -14 -14 -14 -14 -14 -14 -14 -15 -15 -16 -19 -20 -19 -19 -19 -18 -17 -17 -17 -16 -16 -15 -15 -15 -14 -13 -14 -15 -14
-15 -15 -14 -14 -14 -14 -14 -14 -15 -15 -15 -15 -15 -15 -15 -15 -16 -17 -18 -19 -20 -21 -20 -19 -18 -18 -17 -16 -16 -16 -15 -16 -15 -15 -15 -15 -15 -15
-15 -15 -15 -15 -14 -14 -14 -14 -14 -14 -15 -15 -16 -16 -16 -16 -16 -17 -18 -19 -20 -20 -19 -20 -20 -18 -17 -18 -18 -18 -16 -17 -16 -16 -16 -16 -16 -16
-15 -15 -15 -14 -14 -14 -14 -15 -15 -15 -15 -16 -16 -16 -17 -17 -17 -17 -17 -18 -19 -19 -19 -20 -19 -19 -18 -18 -17 -18 -17 -17 -16 -16 -16 -16 -17 -16
-15 -15 -15 -15 -14 -14 -15 -15 -15 -15 -15 -16 -16 -17 -17 -18 -18 -18 -18 -18 -18 -19 -20 -19 -19 -19 -19 -19 -18 -18 -18 -18 -17 -17 -17 -17 -17 -17
-15 -15 -15 -15 -15 -15 -15 -15 -15 -15 -15 -16 -16 -17 -18 -18 -19 -19 -19 -19 -19 -19 -19 -19 -19 -19 -19 -20 -20 -19 -18 -18 -18 -17 -17 -17 -17 -17
-15 -15 -15 -15 -15 -15 -15 -15 -15 -15 -15 -16 -16 -17 -17 -18 -19 -20 -20 -20 -19 -19 -19 -19 -19 -19 -19 -19 -19 -19 -19 -18 -18 -18 -17 -17 -17 -18
-15 -15 -15 -15 -15 -15 -16 -16 -16 -16 -16 -16 -17 -17 -18 -19 -20 -20 -21 -21 -21 -20 -20 -20 -20 -20 -19 -19 -19 -19 -19 -19 -19 -18 -18 -18 -18 -17
-15 -15 -15 -15 -16 -16 -16 -16 -16 -16 -16 -17 -17 -18 -19 -20 -21 -22 -22 -22 -22 -22 -22 -21 -21 -21 -21 -20 -20 -19 -19 -19 -18 -18 -19 -18 -18 -18
-15 -15 -16 -16 -16 -16 -16 -16 -16 -16 -17 -17 -18 -19 -21 -22 -23 -23 -23 -23 -23 -23 -23 -23 -23 -22 -22 -22 -21 -21 -21 -20 -20 -20 -20 -19 -19 -19
-16 -16 -16 -16 -16 -16 -16 -17 -17 -17 -17 -18 -19 -21 -23 -23 -23 -23 -23 -23 -23 -23 -23 -23 -24 -24 -23 -23 -23 -22 -22 -22 -22 -21 -20 -20 -20 -19
-16 -16 -16 -16 -16 -17 -17 -17 -17 -17 -18 -19 -21 -23 -23 -23 -24 -24 -24 -24 -24 -25 -26 -27 -27 -27 -27 -26 -25 -25 -24 -24 -23 -23 -22 -22 -22 -21
-16 -16 -16 -16 -17 -17 -17 -18 -18 -18 -18 -20 -22 -24 -24 -24 -24 -24 -25 -25 -26 -26 -27 -27 -28 -28 -28 -27 -26 -27 -26 -26 -25 -25 -24 -24 -24 -23
-16 -16 -17 -17 -17 -17 -18 -18 -18 -18 -19 -21 -23 -24 -24 -24 -24 -25 -26 -26 -26 -27 -27 -27 -28 -28 -28 -28 -27 -28 -27 -27 -26 -26 -25 -24 -24 -24
-17 -17 -17 -17 -17 -18 -18 -18 -18 -19 -20 -22 -24 -24 -24 -25 -25 -25 -26 -26 -26 -27 -28 -28 -28 -28 -28 -28 -28 -28 -28 -27 -27 -26 -26 -25 -25 -25
-17 -17 -17 -18 -18 -18 -19 -19 -19 -19 -20 -22 -24 -24 -24 -25 -25 -25 -26 -26 -27 -27 -27 -28 -28 -28 -29 -29 -29 -28 -28 -28 -27 -27 -27 -27 -26 -26
-19 -18 -18 -18 -19 -19 -19 -19 -19 -20 -21 -23 -24 -25 -25 -25 -25 -26 -26 -27 -27 -27 -27 -27 -28 -28 -28 -29 -29 -29 -29 -29 -29 -28 -27 -27 -26 -26
Height
5654 5659 5664 5668 5672 5675 5678 5680 5683 5689 5694 5696 5694 5695 5697 5695 5695 5693 5693 5694 5693 5694 5695 5696 5696 5697 5698 5698 5700 5700 5700 5701 5701 5702 5702 5703 5704 5703
5644 5648 5652 5656 5659 5663 5665 5668 5671 5673 5678 5679 5682 5682 5683 5683 5681 5678 5678 5677 5677 5677 5677 5679 5680 5681 5682 5683 5683 5684 5685 5686 5686 5687 5689 5689 5690 5690
5637 5640 5642 5644 5647 5651 5654 5658 5660 5661 5662 5666 5665 5666 5665 5664 5663 5660 5659 5658 5657 5657 5657 5658 5659 5662 5665 5666 5666 5667 5668 5670 5672 5673 5673 5672 5673 5675
5630 5632 5633 5635 5637 5639 5643 5647 5649 5647 5649 5652 5647 5644 5643 5641 5640 5637 5637 5638 5637 5638 5636 5636 5638 5640 5643 5645 5647 5649 5650 5652 5654 5656 5657 5659 5658 5659
5626 5626 5627 5628 5628 5630 5631 5633 5634 5635 5634 5633 5631 5625 5623 5619 5615 5612 5609 5610 5609 5612 5613 5613 5614 5617 5620 5623 5626 5629 5632 5634 5637 5638 5641 5642 5642 5643
5625 5624 5624 5624 5624 5624 5626 5627 5628 5627 5625 5622 5619 5615 5611 5604 5597 5590 5585 5580 5582 5581 5586 5589 5589 5593 5597 5599 5604 5610 5614 5617 5618 5620 5622 5623 5624 5625
5626 5625 5625 5624 5624 5624 5624 5623 5622 5619 5617 5613 5610 5605 5599 5593 5585 5576 5567 5562 5560 5561 5565 5566 5571 5573 5577 5581 5585 5589 5594 5596 5598 5599 5600 5602 5606 5607
5626 5624 5622 5621 5620 5620 5619 5617 5614 5610 5607 5602 5598 5593 5588 5582 5573 5565 5558 5551 5546 5544 5546 5549 5555 5558 5561 5562 5564 5570 5575 5574 5580 5577 5576 5583 5584 5587
5623 5621 5619 5617 5616 5614 5611 5609 5606 5601 5596 5592 5587 5582 5577 5571 5564 5557 5550 5544 5537 5535 5536 5537 5540 5541 5541 5543 5548 5550 5551 5557 5558 5561 5563 5564 5564 5567
5620 5617 5614 5612 5610 5607 5604 5601 5596 5592 5587 5582 5576 5571 5566 5560 5554 5548 5542 5537 5530 5528 5527 5527 5528 5528 5527 5529 5529 5533 5536 5537 5539 5543 5547 5548 5551 5554
5616 5612 5608 5605 5601 5598 5594 5590 5586 5582 5576 5569 5564 5559 5554 5548 5544 5538 5533 5528 5525 5521 5518 5517 5516 5517 5516 5516 5514 5514 5515 5518 5522 5525 5528 5532 5534 5536
5610 5606 5603 5599 5595 5591 5586 5581 5576 5570 5564 5559 5552 5546 5541 5536 5531 5527 5522 5518 5514 5511 5508 5506 5504 5502 5503 5501 5501 5504 5504 5505 5507 5508 5510 5514 5517 5518
5602 5599 5596 5592 5587 5582 5577 5571 5565 5559 5553 5546 5540 5533 5527 5521 5517 5513 5509 5505 5502 5499 5495 5493 5491 5489 5488 5487 5488 5488 5490 5490 5492 5493 5494 5497 5500 5501
5593 5589 5586 5581 5577 5571 5566 5560 5554 5547 5539 5532 5525 5519 5512 5505 5500 5496 5492 5489 5487 5484 5481 5477 5475 5473 5472 5470 5470 5471 5473 5474 5475 5476 5478 5480 5481 5483
5582 5579 5575 5570 5564 5559 5553 5547 5541 5533 5526 5519 5511 5503 5495 5489 5484 5479 5475 5472 5468 5465 5463 5461 5459 5456 5454 5453 5452 5453 5454 5453 5455 5458 5460 5461 5461 5463
5572 5568 5563 5559 5554 5548 5542 5536 5529 5521 5513 5505 5496 5487 5480 5474 5469 5465 5461 5457 5453 5449 5445 5442 5439 5436 5435 5434 5434 5433 5434 5435 5435 5437 5440 5441 5442 5445
5560 5557 5552 5547 5542 5536 5529 5522 5514 5506 5498 5489 5480 5472 5466 5460 5455 5450 5445 5441 5436 5430 5425 5421 5417 5414 5413 5412 5412 5413 5414 5415 5417 5417 5418 5420 5420 5424
5550 5546 5541 5536 5530 5523 5516 5509 5500 5492 5483 5473 5464 5458 5453 5448 5443 5436 5431 5425 5419 5413 5407 5401 5395 5393 5393 5392 5391 5392 5392 5394 5395 5396 5399 5402 5400 5401
5539 5534 5529 5523 5516 5510 5503 5494 5486 5477 5467 5458 5450 5444 5439 5434 5429 5422 5416 5410 5404 5399 5394 5388 5382 5378 5376 5375 5375 5375 5376 5377 5378 5378 5378 5379 5381 5379
5527 5522 5516 5510 5504 5497 5489 5480 5471 5462 5452 5442 5435 5429 5424 5420 5414 5408 5401 5396 5390 5385 5380 5375 5370 5365 5362 5360 5358 5355 5358 5357 5357 5358 5359 5360 5361 5361
5514 5508 5502 5496 5488 5482 5474 5466 5456 5446 5436 5427 5420 5416 5411 5406 5400 5394 5388 5382 5376 5371 5366 5362 5358 5354 5350 5347 5345 5342 5339 5340 5339 5339 5339 5340 5339 5339
5499 5494 5488 5482 5476 5468 5460 5452 5442 5433 5423 5414 5407 5402 5398 5393 5387 5381 5375 5369 5364 5359 5355 5351 5346 5342 5339 5336 5333 5330 5327 5324 5323 5323 5323 5321 5321 5320
5484 5480 5474 5468 5461 5454 5446 5438 5428 5418 5408 5400 5394 5389 5384 5380 5374 5369 5363 5357 5353 5348 5344 5340 5336 5332 5328 5326 5323 5320 5317 5314 5311 5308 5308 5306 5305 5303
Wind_Speed
57 62 64 61 62 64 66 67 68 67 65 63 65 65 62 64 65 66 67 68 69 69 67 66 64 63 64 68 61 56 49 55 56 54 51 54 52 49
47 50 55 61 62 61 62 64 67 70 70 69 69 70 71 71 72 73 73 74 75 74 74 72 70 69 67 67 65 66 61 53 55 58 55 57 58 54
38 38 40 45 54 61 59 59 60 64 66 68 70 72 74 76 78 80 80 80 80 81 80 78 76 73 72 71 69 69 67 63 59 58 63 56 55 51
29 33 34 38 45 50 53 57 60 63 67 70 75 79 80 82 84 86 88 88 87 87 87 85 83 79 76 73 71 70 69 67 65 61 55 58 54 49
17 20 24 27 30 33 36 43 49 55 59 63 66 69 72 76 80 84 85 88 90 92 92 91 88 86 82 78 74 70 69 70 69 69 73 74 76 76
12 9 9 7 6 7 7 10 14 18 21 24 27 30 34 40 45 58 72 76 76 76 78 85 88 85 73 66 71 72 69 69 69 68 71 71 71 68
10 9 8 8 8 9 12 16 19 23 27 30 32 34 36 39 41 41 43 48 56 60 63 63 61 61 57 57 60 69 66 64 61 67 76 76 68 66
12 12 12 14 15 16 19 22 26 30 33 35 37 38 37 40 40 38 36 37 39 43 46 46 49 51 51 51 50 50 52 55 56 57 54 61 54 60
15 16 17 18 19 21 24 27 30 33 38 41 42 41 42 41 40 39 41 41 35 39 32 43 41 44 41 47 55 54 61 63 60 59 55 56 53 52
21 20 21 22 24 26 30 33 35 38 41 44 45 44 44 44 42 36 37 37 36 32 31 36 41 49 50 34 40 60 51 44 55 59 57 61 59 59
27 28 27 28 29 31 34 38 41 43 46 48 49 49 48 45 45 43 38 35 34 38 38 44 50 45 55 48 35 44 40 44 53 61 61 50 56 60
28 29 31 34 37 39 41 43 45 47 50 52 53 52 52 52 49 46 45 41 38 38 41 45 46 51 56 56 57 57 46 46 49 54 57 57 57 57
31 34 37 39 41 43 45 47 49 51 53 56 57 56 55 55 56 54 50 48 48 47 46 49 47 46 49 53 60 54 55 53 51 54 61 65 61 60
34 36 38 40 42 43 46 49 51 53 55 56 58 60 59 58 56 58 58 56 53 53 51 54 53 55 56 60 60 60 61 59 58 58 61 61 61 63
37 39 39 41 44 46 48 50 52 54 58 59 61 62 60 57 52 50 51 52 52 55 58 58 52 50 51 56 57 60 61 60 62 63 67 58 51 52
39 40 41 43 46 48 50 53 55 58 60 62 64 61 56 50 48 49 50 50 50 52 55 58 61 65 62 57 55 56 58 57 56 56 56 57 57 56
41 41 43 46 49 52 53 56 59 62 64 66 64 57 51 48 50 54 54 55 58 60 62 64 62 63 63 64 67 66 62 59 58 59 60 59 62 63
43 44 45 48 51 54 56 58 61 64 66 66 59 50 48 50 51 50 53 52 54 53 51 50 49 49 51 53 56 57 57 57 59 60 59 56 57 63
46 46 48 51 54 56 58 60 62 65 67 63 53 48 48 49 49 51 48 47 48 49 50 48 46 44 44 44 48 50 51 50 48 48 50 53 52 57
48 49 50 53 57 58 61 63 64 67 67 61 52 48 47 49 50 49 46 47 47 47 46 43 40 41 41 44 47 51 45 45 45 45 45 47 50 53
49 50 51 54 57 59 62 64 64 66 66 58 51 48 47 48 50 49 46 46 43 43 42 41 40 38 38 39 39 40 41 41 42 43 45 47 49 50
50 50 51 54 58 60 63 64 64 66 65 57 48 46 47 47 47 45 42 39 39 40 40 40 40 38 37 36 36 37 39 40 41 42 42 43 44 45
49 52 51 54 56 60 62 62 64 65 63 55 47 45 46 45 44 42 40 38 38 39 39 37 34 34 33 32 31 30 30 32 34 37 37 38 40 42
Wind_Direction
248 249 250 251 252 254 257 259 261 263 264 265 265 265 266 269 269 268 269 269 270 270 269 269 270 269 269 273 270 267 269 273 272 269 275 264 265 269
255 254 253 251 252 254 257 260 261 264 265 266 267 268 267 267 269 270 269 269 269 270 270 270 268 267 267 266 265 264 270 272 270 270 263 266 271 270
258 263 262 261 258 254 256 261 265 268 270 271 272 270 269 268 268 268 269 268 269 269 269 269 269 268 267 267 265 264 265 267 269 267 269 267 267 274
264 265 266 267 262 256 258 262 264 267 269 271 272 272 271 269 268 266 266 266 266 266 267 268 268 268 268 267 267 266 266 265 262 266 267 268 264 264
279 275 273 269 264 262 263 265 268 270 269 269 268 270 272 272 272 270 268 265 264 262 261 262 264 265 265 265 266 266 266 267 267 265 264 266 270 275
51 45 37 21 9 345 322 304 297 294 294 297 293 290 288 289 289 283 276 272 267 264 263 262 262 262 261 261 262 264 265 266 266 268 268 268 269 273
17 12 2 350 334 320 309 301 298 296 295 297 298 297 295 293 295 301 298 284 274 266 259 260 262 262 261 264 263 265 265 267 274 269 271 263 265 270
344 336 327 321 318 315 308 303 301 300 299 297 298 299 302 301 299 300 303 299 287 270 256 250 258 262 258 257 252 248 261 254 252 254 250 262 259 260
328 324 319 315 313 310 308 305 305 304 304 306 307 306 305 306 306 304 301 300 291 286 263 252 255 246 259 251 251 244 232 239 253 250 258 253 255 254
317 312 308 305 304 304 305 304 301 301 304 305 303 303 302 301 300 301 304 297 287 276 266 251 249 247 247 267 256 250 253 255 257 253 251 248 250 254
313 309 307 306 305 302 300 302 305 307 305 303 302 301 299 297 297 294 293 293 294 279 272 260 266 250 263 273 262 253 257 264 253 252 251 257 256 255
305 305 306 307 307 309 309 310 309 307 307 309 306 301 297 294 292 290 287 283 283 281 281 274 268 262 264 270 273 272 257 257 260 256 254 255 256 247
303 304 306 310 312 312 313 311 310 310 307 308 308 305 301 295 292 290 285 282 280 273 274 273 270 266 272 267 264 261 262 266 267 264 254 253 251 246
298 302 306 309 310 310 310 310 310 307 307 307 307 305 301 297 292 288 287 285 281 276 276 272 270 267 271 268 269 260 261 261 263 261 263 253 248 248
298 301 306 307 309 309 308 309 310 309 311 313 311 307 303 299 294 291 289 289 288 286 282 276 272 271 268 268 268 261 263 264 261 257 261 260 255 248
299 302 305 306 307 311 311 311 313 314 315 314 311 306 301 297 293 294 294 292 293 293 291 288 284 278 269 265 263 261 261 261 261 259 256 257 257 255
297 302 304 307 309 309 312 314 317 318 317 315 313 306 298 294 296 298 296 292 293 294 293 290 283 278 277 277 273 269 269 268 265 265 265 264 262 260
296 301 304 307 309 312 315 317 319 319 317 314 310 302 296 296 300 299 298 298 301 304 304 304 298 281 273 272 274 276 277 277 277 275 271 269 270 266
294 298 302 305 307 311 314 317 319 319 316 313 308 300 299 299 301 303 300 301 300 299 302 299 296 292 280 269 263 266 272 272 272 272 273 275 272 273
294 299 302 306 308 310 314 317 319 318 316 313 305 301 300 301 304 303 299 300 302 300 301 297 297 292 288 278 274 277 274 272 272 271 269 267 263 262
294 298 301 305 308 311 315 318 319 318 315 311 305 301 300 301 303 302 300 301 303 304 303 299 298 294 289 284 281 280 280 277 274 272 271 269 268 268
295 297 300 305 309 311 315 317 318 318 315 310 303 299 300 301 301 301 301 303 305 305 305 303 300 298 294 290 286 284 284 284 280 278 276 275 273 273
292 297 300 302 307 311 315 316 318 317 313 308 302 300 300 301 300 302 301 305 305 305 305 304 303 303 300 295 292 291 290 289 289 286 280 276 274 272